www.pogodaiklimat.ru

Погода и климат >> Архив погоды >> Россия >> Приморский край >> Преображение


АРХИВ ПОГОДЫ в Преображении

Время (UTC), дата Ветер
(напр.,м/с)
 
Видим.   Явления Облачность Т
(С)
Тd
(С)
f
(%)
Тe
(С)
Тes
(С)
Комфортность P
(гПа)
Po
(гПа)
Тmin
(С)
Tmax
(С)
R
(мм)
R24
(мм)
S
(см)
06 9.01 ЮЗ 4-15
{15}
50 км 6/0
[Cc]
-1.3 -22.3 18 -6 -5 1018.3 1012.9
09 9.01 З 5-13
{16}
50 км ясно -0.7 -18.0 26 -6 -6 1017.7 1012.3 -0.3
12 9.01 Ю 1
{16}
50 км ясно -1.3 -23.2 17 -2 -2 1017.3 1011.8
15 9.01 ЮЗ 1 50 км ясно -1.6 -24.3 16 -2 -2 1017.0 1011.6
18 9.01 штиль 0 50 км ясно -3.1 -22.1 21 -3 -3 1016.4 1010.9
21 9.01 З 1 50 км ясно -5.0 -22.8 23 -6 -6 1015.2 1009.7 -5.7
00 10.01 штиль 0 50 км 10/0
[Ci fib]
-6.0 -22.3 26 -6 -5 1014.9 1009.3 -7.6
03 10.01 ЮЗ 1 50 км 3/0
[Ci fib]
+2.7 -19.3 18 +2 +7 1012.0 1006.7
06 10.01 З 1 50 км ясно +4.5 -20.9 14 +5 +6 1009.7 1004.4
09 10.01 З 2 50 км ясно +0.4 -21.6 17 -2 -2 1013.4 1008.0 +4.9
12 10.01 ЮВ 1
{11}
50 км ясно -2.4 -21.2 22 -3 -3 1017.2 1011.7
15 10.01 С 1 50 км ясно -5.2 -22.5 24 -7 -7 1020.7 1015.2
18 10.01 СВ 3 50 км ясно -8.8 -21.1 36 -14 -14 1022.7 1017.1
21 10.01 С 2 50 км ясно -11.0 -21.2 43 -15 -15 1023.7 1018.0 -11.0
00 11.01 З 2 50 км ясно -4.4 -21.1 26 -8 -6 1023.8 1018.3
03 11.01 ЮЗ 2 50 км ясно -0.9 -20.6 21 -3 +1 1023.4 1017.9
06 11.01 Ю 3 50 км ясно -0.5 -15.6 31 -4 -3 1022.4 1017.0
09 11.01 СВ 4 50 км ясно -3.4 -18.2 31 -9 -9 1023.5 1017.9 +0.6
12 11.01 СВ 5 50 км ясно -5.7 -22.1 26 -12 -12 1023.9 1018.3
15 11.01 С 6 50 км ясно -8.4 -22.7 31 -16 -16 1023.6 1018.0
18 11.01 СВ 4 50 км ясно -4.5 -28.2 14 -10 -10 1023.5 1017.9
21 11.01 СВ 4 50 км ясно -7.2 -24.3 24 -13 -13 1023.4 1017.7 -9.2
00 12.01 С 6 50 км ясно -6.1 -23.8 23 -13 -13 1024.3 1018.7
03 12.01 ЮВ 3 50 км ясно +1.1 -13.8 32 -2 +1 1023.6 1018.1
06 12.01 ЮВ 3 50 км 1/0
[Ci fib]
-0.2 -12.8 38 -4 -3 1023.0 1017.5
09 12.01 СВ 3 50 км 3/0
[Ac lent Ci fib]
-2.8 -11.7 50 -7 -7 1024.1 1018.6 +1.5
12 12.01 СВ 5 50 км ясно -4.7 -12.2 56 -11 -11 1024.9 1019.4
15 12.01 СВ 5 50 км ясно -5.0 -11.4 61 -12 -12 1024.8 1019.2
18 12.01 СВ 6 50 км ясно -5.9 -11.2 66 -14 -14 1025.3 1019.8
21 12.01 С 6 50 км ясно -7.0 -11.1 73 -15 -15 1025.4 1019.8 -7.2
00 13.01 С 5 50 км 1/0
[Cc]
-4.6 -10.4 64 -11 -11 1025.9 1020.3 -7.3
03 13.01 Ю 3 50 км 1/1 600 м
[Cu hum]
+1.0 -8.1 51 -3 +1 1024.6 1019.2
06 13.01 ЮЗ 2 50 км ясно +1.1 -8.1 50 -2 -0 1024.4 1019.0
09 13.01 З 1 50 км 1/0
[Ci fib]
-2.2 -7.8 65 -4 -4 1024.9 1019.4 +1.6
12 13.01 С 4 50 км ясно -4.7 -9.3 70 -11 -11 1025.1 1019.6
15 13.01 С 5 50 км ясно -6.6 -9.9 77 -14 -14 1024.8 1019.2
18 13.01 С 5 50 км ясно -6.8 -10.5 75 -14 -14 1024.9 1019.3
21 13.01 С 5 50 км 5/0
[Ci fib]
-6.1 -11.1 68 -13 -13 1024.2 1018.6 -7.9
00 14.01 С 2 50 км 1/0
[Ci fib]
-5.2 -11.3 62 -9 -8 1024.8 1019.2
03 14.01 ЮЗ 1 50 км ясно +2.7 -5.7 54 +2 +7 1023.1 1017.7
06 14.01 ЮЗ 3 50 км ясно +1.0 -4.2 68 -3 -2 1022.3 1016.8
09 14.01 штиль 0 50 км 10/0
[Ac cast Ci fib]
-1.3 -5.8 71 -2 -2 1022.1 1016.6 +3.4
12 14.01 штиль 0 50 км 10/0
[As op]
-0.9 -6.6 65 -2 -2 1021.8 1016.4
15 14.01 штиль 0 4000 м слаб. снег 10/10 300 м
[Frnb Ns]
-1.1 -4.8 76 -2 -2 1019.8 1014.4
18 14.01 С 4 4000 м слаб. снег 10/10
[Frnb Ns]
-2.0 -3.8 87 -8 -8 1017.5 1012.0
21 14.01 С 3 50 км {снег} 10/0
[As op]
-2.1 -4.1 86 -7 -7 1014.5 1009.0 -2.4 0.7 4
00 15.01 СВ 2 50 км {снег} 10/0
[As op]
-1.6 -4.2 82 -5 -5 1011.8 1006.4
03 15.01 З 2 50 км 10/0
[As op]
+0.7 -5.4 64 -2 -1 1009.1 1003.8
06 15.01 С 2
{10}
20 км слаб. снег 10/10 300 м
[Frnb Ns]
-1.8 -7.2 67 -5 -5 1008.9 1003.4
09 15.01 С 3
{17}
50 км {снег} 3/0
[Cs]
-4.3 -18.0 33 -9 -9 1010.9 1005.4 +1.4 0.0
12 15.01 С 3
{17}
50 км {снег} 3/0
[Cs]
-4.3 -18.0 33 -9 -9 1010.9 1005.4 +1.4 0.0
15 15.01 С 4-10
{15}
50 км {снег} 1/0
[Cs]
-7.6 -21.3 32 -14 -14 1014.3 1008.7
18 15.01 СЗ 3
{16}
50 км ясно -9.5 -24.6 28 -15 -15 1015.9 1010.3
21 15.01 СВ 1 50 км ясно -13.2 -25.7 34 -16 -16 1017.7 1012.0 -13.2 0
00 16.01 С 1 50 км ясно -11.8 -26.0 30 -14 -12 1017.8 1012.1 -14.3

 

Местоположение метеостанции Преображение (Приморский край, Россия): широта 42.90 долгота 133.90 высота над уровнем моря 43 м.

В архиве по умолчанию представлена погода в Преображении за последнюю неделю. Архивные данные за месяц целиком и за предыдущие месяцы, начиная с января 2011 года, Вы можете получить, выбрав интересующий диапазон дат из раскрывающегося списка и нажав кнопку "Ввод!".


*Определитесь, кто Вы:
робот инопланетянин человек

Внимание! Время в таблицах - всемирное. Для получения местного времени необходимо прибавить поправку, которая равна 10 ч.

Смотрите также архив погоды в соседних городах и на ближайших метеорологических станциях:

Погода в Лазо (Приморский край, Россия) (56 км)
Погода в Лучегорске (Приморский край, Россия) (75 км)
Погода в Партизанске (Приморский край, Россия) (78 км)
Погода в Находке (Приморский край, Россия) (90 км)
Погода в Многоудобном (Приморский край, Россия) (132 км)
Погода в Чугуевке (Приморский край, Россия) (139 км)
Погода в Анучино (Приморский край, Россия) (139 км)
Погода в Ольге (Приморский край, Россия) (148 км)
Погода в Дальнегорске (Приморский край, Россия) (153 км)
Погода на Мысе Назимова (Приморский край, Россия) (164 км)

Пояснения к столбцам:

Ветер - указаны скорость ветра в м/с - средняя за 10 мин, порывы в срок и между сроками (в фигурных скобках) и направление, откуда дует ветер: С - северный, СВ - северо-восточный, В - восточный, ЮВ - юго-восточный, Ю - южный, ЮЗ - юго-западный, З - западный, СЗ - северо-западный.
Видимость - горизонтальная дальность видимости в метрах или километрах. При видимости от 1 до 10 км при отсутствии осадков обычно наблюдается дымка, при ухудшении видимости до 1 км и менее - туман. В сухую погоду видимость может ухудшаться дымом, пылью или мглою.
Явления - указаны атмосферные явления, наблюдавшиеся в срок или в последний час перед сроком; фигурными скобками обозначены явления, наблюдавшиеся между сроками (за 1-3 часа до срока); квадратными скобками обозначены град или гололедные отложения с указанием их диаметра в мм.
Облачность - указаны через наклонную черту общая и нижняя облачность в баллах и высота нижней границы облаков в метрах; квадратными скобками обозначены формы облаков: Ci - перистые, Cs - перисто-слоистые, Cc - перисто-кучевые, Ac - высококучевые, As - высокослоистые, Sc - слоисто-кучевые, Ns - слоисто-дождевые, Cu - кучевые, Cb - кучево-дождевые. Подробнее классификацию облаков см. в Атласе облаков (PDF).
T - Температура воздуха - температура, измеренная на высоте 2 м над землей.
Td - Температура точки росы - температура, при понижении до которой содержащийся в воздухе водяной пар достигнет насыщения.
f - Относительная влажность воздуха - влажноcть воздуха, измеренная на высоте 2 м над землей.
Te - Эффективная температура - температура, которую ощущает одетый по сезону человек в тени. Характеристика душности погоды. При расчете учитывается влияние влажности воздуха и скорости ветра на теплоощущения человека.
Tes - Эффективная температура на солнце - температура, которую ощущает человек, с поправкой на солнечный нагрев. Характеристика знойности погоды. Зависит от высоты солнца над горизонтом, облачности и скорости ветра. Ночью, в пасмурную погоду, а также при ветре 12 м/с и более поправка равна нулю.
P - Атмосферное давление - приведенное к уровню моря атмосферное давление.
Po - Атмосферное давление - измеренное на уровне метеостанции атмосферное давление.
Tmin - Минимальная температура - минимум температуры воздуха на высоте 2 м над землей.
Tmax - Максимальная температура - максимум температуры воздуха на высоте 2 м над землей.
R - Количество осадков - Количество выпавших осадков за период времени, мм. При наведении курсора мыши на число - период времени, за который выпало указанное количество осадков.
R24 - Количество осадков - Количество выпавших осадков за 24 часа, мм.
S - Снежный покров - Высота снежного покрова, см. При наведении курсора мыши на число - состояние снежного покрова и степень покрытия местности в баллах.